Flag for Canada Weather past 2 weeks in Rankin Inlet, Nunavut Territory, Canada

Now
-18 °F

Partly sunny.


Feels Like: -29 °F
Forecast: N/A
Wind: 3 mph from Northeast

Location: Rankin Inlet

Current Time: Feb 26, 2015 at 5:30:36 PM

Latest Report: Feb 26, 2015 at 4:00 PM


Visibility: 15 mi

Pressure: 29.85 "Hg

Humidity: 69%

Dew point: -26 °F

Location of Rankin InletLocation

Historic Weather in Rankin Inlet — Graph

°F

Rankin Inlet temperature yesterday

Maximum temperature yesterday: -13 °F (at 1:00 PM)
Minimum temperature yesterday: -31 °F (at 12:00 AM)
Average temperature yesterday: -20 °F

Past Weeks' High & Low Weather Summary

 TemperatureHumidityPressure
High-6 °F (Feb 15, 11:00 AM)77% (Feb 15, 7:00 AM)30.67 "Hg (Feb 15, 7:00 AM)
Low-38 °F (Feb 12, 2:00 AM)58% (Feb 12, 4:00 AM)29.48 "Hg (Feb 23, 11:00 AM)
Average-26 °F67%30.07 "Hg
* Reported Feb 11 4:00 PM — Feb 26 4:00 PM, Rankin Inlet, Weather by CustomWeather, © 2015

Note: Actual official high and low records may vary slightly from our data, if they occured in-between our weather recording intervals... More about our weather records

Advertising

Rankin Inlet weather history for previous 24 hours

 ConditionsComfort  
Time TempWeatherWind HumidityBarometerVisibility
4:00 PM
Thu, Feb 26
-18 °FPartly sunny.3 mph69%29.85 "Hg15 mi
3:00 PM-17 °FPartly sunny.3 mph69%29.86 "Hg15 mi
2:00 PM-17 °FScattered clouds.5 mph69%29.89 "Hg15 mi
1:00 PM-17 °FPartly sunny.9 mph69%29.90 "Hg15 mi
12:00 PM-17 °FPartly sunny.10 mph69%29.91 "Hg15 mi
11:00 AM-18 °FPartly sunny.15 mph69%29.93 "Hg15 mi
10:00 AM-18 °FPartly sunny.17 mph69%29.94 "Hg15 mi
9:00 AM-20 °FScattered clouds.15 mph68%29.96 "Hg15 mi
8:00 AM-20 °FPartly sunny.17 mph75%29.97 "Hg10 mi
7:00 AM-18 °FClear.21 mph69%29.97 "Hg2 mi
6:00 AM-17 °FClear.25 mph69%29.97 "Hg2 mi
5:46 AM-17 °FClear.17 mph69%29.99 "Hg2 mi
5:00 AM-17 °FClear.18 mph69%29.98 "Hg1 mi
4:00 AM-17 °FClear.23 mph69%29.97 "Hg1 mi
3:00 AM-17 °FClear.18 mph69%29.97 "Hg1 mi
2:00 AM-17 °FClear.22 mph69%29.98 "Hg1 mi
1:00 AM-17 °FClear.18 mph69%29.99 "Hg1 mi
12:00 AM-17 °FClear.32 mph69%29.97 "Hg1 mi
11:00 PM
Wed, Feb 25
-17 °FClear.33 mph69%29.98 "Hg1 mi
10:00 PM-18 °FClear.21 mph69%30.00 "Hg1 mi
9:00 PM-18 °FClear.25 mph75%30.00 "Hg1 mi
8:00 PM-17 °FPassing clouds.35 mph69%29.97 "Hg1 mi
7:00 PM-17 °FPassing clouds.22 mph69%30.01 "Hg1 mi
6:00 PM-15 °FPassing clouds.26 mph69%30.01 "Hg1 mi
5:00 PM-13 °FBlizzard. Partly sunny.24 mph69%30.00 "Hg0 mi
Weather by CustomWeather, © 2015

See weather overviewHow to use our weather pages